Flag for Mexico Weather past 2 weeks in Guadalajara, Jalisco, Mexico

Now
68 °F

Passing clouds.


Feels Like: 68 °F
Forecast: 62 / 80 °F
Wind: No wind

Location: Don Miguel / Guadalaj

Current Time: Aug 1, 2015 at 1:41:38 AM

Latest Report: Jul 31, 2015 at 11:45 PM


Visibility: 10 mi

Pressure: 30.18 "Hg (25.21 "Hg at 1543m altitude)

Humidity: 73%

Dew point: 59 °F

Location of GuadalajaraLocation

Historic Weather in Guadalajara — Graph

°F

Guadalajara temperature yesterday

Maximum temperature yesterday: 82 °F (at 4:57 PM)
Minimum temperature yesterday: 59 °F (at 2:54 AM)
Average temperature yesterday: 71 °F

Past Weeks' High & Low Weather Summary

 TemperatureHumidityPressure
High84 °F (Jul 25, 5:48 PM)94% (Jul 17, 2:49 AM)30.30 "Hg (Jul 17, 2:49 AM)
Low57 °F (Jul 18, 6:50 AM)31% (Jul 25, 5:48 PM)26.01 "Hg (Jul 27, 6:31 PM)
Average70 °F69%30.08 "Hg
* Reported Jul 16 11:55 PM — Jul 31 11:45 PM, Guadalajara, Weather by CustomWeather, © 2015

Note: Actual official high and low records may vary slightly from our data, if they occured in-between our weather recording intervals... More about our weather records

Advertising

Guadalajara weather history for previous 24 hours

 ConditionsComfort  
Time TempWeatherWind HumidityBarometerVisibility
11:45 PM
Fri, Jul 31
68 °FPassing clouds.No wind73%30.18 "Hg10 mi
10:46 PM68 °FPassing clouds.No wind78%30.15 "Hg10 mi
9:50 PM70 °FPassing clouds.No wind64%29.85 "Hg10 mi
8:50 PM73 °FPartly sunny.3 mph61%30.12 "Hg10 mi
7:48 PM79 °FPartly sunny.No wind42%30.11 "Hg10 mi
5:49 PM82 °FPassing clouds.6 mph37%30.12 "Hg8 mi
4:57 PM82 °FScattered clouds.5 mph45%30.14 "Hg8 mi
3:50 PM81 °FScattered clouds.7 mph45%29.85 "Hg8 mi
2:49 PM79 °FScattered clouds.7 mph51%30.20 "Hg7 mi
1:52 PM77 °FScattered clouds.5 mph44%30.22 "Hg8 mi
12:50 PM75 °FScattered clouds.6 mph54%29.91 "Hg8 mi
11:52 AM73 °FBroken clouds.10 mph61%30.27 "Hg8 mi
10:50 AM70 °FPartly sunny.5 mph64%30.27 "Hg7 mi
9:52 AM64 °FPartly sunny.No wind83%29.94 "Hg5 mi
7:54 AM61 °FPassing clouds.5 mph94%30.23 "Hg4 mi
6:53 AM61 °FMostly cloudy.No wind94%29.93 "Hg7 mi
4:54 AM61 °FPartly cloudy.No wind94%30.22 "Hg7 mi
3:51 AM61 °FLight rain. Mostly cloudy.No wind94%29.93 "Hg7 mi
2:54 AM59 °FLight rain. Mostly cloudy.6 mph94%30.25 "Hg6 mi
Weather by CustomWeather, © 2015

See weather overviewHow to use our weather pages